#timestamp,LO_Frequency,Hit,StdDev 
1597316415.3,286047000.8,N
1597316435.2,286046998.2,N
1597316455.9,286046998.8,N
1597316475.7,286046999.0,N
1597316495.6,286047000.9,N
1597316515.4,286047002.2,N
1597316535.2,286047000.0,N
1597316555.1,286046998.2,N
1597316556.0,286046998.2,N
1597316575.8,286047000.0,N
1597316595.7,286046998.5,N
1597316615.5,286046998.4,N
1597316635.3,286046998.8,N
1597316655.2,286046999.2,N
1597316675.0,286046996.5,N
1597316675.9,286046996.5,N
1597316695.7,286046996.6,N
1597316715.6,286046996.6,N
1597316735.4,286046997.1,N
1597316755.3,286046997.5,N
1597316775.1,286046997.6,N
1597316776.0,286046997.6,N
1597316795.8,286046998.0,N
1597316815.7,286046995.4,N
1597316835.5,286046996.2,N
1597316855.3,286046995.8,N
1597316875.2,286046995.7,N
1597316895.0,286046995.6,N
1597316895.9,286046995.6,N
1597316915.8,286046996.0,N
1597316935.6,286046993.4,Y
1597316955.4,286046997.3,P
1597316975.3,286046997.3,P
1597316995.1,286046997.7,P
1597317015.9,286046997.7,Y
1597317035.7,286047000.9,P
1597317055.5,286047000.8,N
1597317075.4,286046998.1,N
1597317095.2,286046998.3,N
1597317115.1,286047000.3,N
1597317116.0,286047000.3,N
1597317135.8,286047000.5,N
1597317155.6,286047000.4,N
1597317175.5,286047001.2,N
1597317195.3,286046998.6,N
1597317215.1,286047000.9,N
1597317235.9,286047000.4,N
1597317255.7,286046999.9,N
1597317275.6,286047000.1,N
1597317295.4,286047000.2,N
1597317315.2,286047000.4,N
1597317335.1,286047002.7,N
1597317336.0,286047002.7,N
1597317355.8,286046999.7,N
1597317375.6,286047001.7,N
1597317395.5,286047002.5,N
1597317415.3,286047001.9,N
1597317435.2,286047002.1,N
1597317455.9,286047002.4,N
1597317475.7,286047002.6,N
1597317495.6,286047002.0,N
1597317515.4,286047011.9,Y
1597317535.3,286047000.0,P
1597317555.1,286047000.2,N
1597317556.0,286047000.2,N
1597317575.8,286047000.1,N
1597317595.7,286046999.8,N
1597317615.5,286047000.7,N
1597317635.3,286047002.8,Y
1597317655.2,286047000.2,P
1597317675.0,286047001.1,P
1597317675.9,286047001.1,N
1597317695.8,286047000.9,N
1597317715.6,286047000.3,N
1597317735.4,286046999.7,N
1597317755.3,286047000.4,N
1597317775.1,286047001.0,N
1597317795.9,286047000.5,N
1597317815.7,286046999.9,N
1597317835.5,286047000.2,N
1597317855.4,286047000.0,N
1597317875.2,286046999.9,N
1597317895.0,286047000.2,N
1597317895.9,286047000.2,N
1597317915.8,286047002.8,Y
1597317935.6,286046999.9,P
1597317955.5,286047000.7,N
1597317975.3,286047001.0,N
1597317995.1,286047000.5,N
1597318015.9,286046998.6,Y
1597318035.7,286046998.7,P
1597318055.6,286046998.6,N
1597318075.4,286046998.6,N
1597318095.2,286046998.7,N
1597318115.1,286046998.6,N
1597318116.0,286046998.6,N
1597318135.8,286046998.8,N
1597318155.6,286047000.8,N
1597318175.5,286047000.9,N
1597318195.3,286046999.3,N
1597318215.2,286046998.3,N
1597318235.9,286046998.7,N
1597318255.7,286046996.5,Y
1597318275.6,286046999.3,P
1597318295.4,286046998.8,P
1597318315.2,286046999.1,P
1597318335.1,286046999.3,Y
1597318336.0,286046999.3,P
1597318355.8,286047001.0,P
1597318375.7,286047001.0,N
1597318395.5,286047001.1,N
1597318415.3,286047000.9,N
1597318435.2,286047000.6,N
1597318455.0,286047000.0,N
1597318455.9,286047000.0,N
1597318475.8,286047000.8,N
1597318495.6,286047000.7,N
1597318515.4,286047000.9,N
1597318535.3,286046999.9,N
1597318555.1,286047000.6,N
1597318575.8,286047000.6,N
1597318595.7,286047000.4,N
1597318615.5,286047000.6,N
1597318635.4,286047000.8,N
1597318655.2,286046998.1,Y
1597318675.0,286046999.2,P
1597318675.9,286046999.2,N
1597318695.8,286046998.4,N
1597318715.6,286046998.6,N
1597318735.4,286046998.8,N
1597318755.3,286047001.2,N
1597318775.1,286046998.1,N
1597318795.9,286046998.1,N
1597318815.7,286046998.5,N
1597318835.5,286046998.6,N
1597318855.4,286046998.6,N
1597318875.2,286047001.0,N
1597318895.0,286047001.0,N
1597318896.0,286047001.0,N
1597318915.8,286047001.1,N
1597318935.6,286046998.1,N
1597318955.5,286047000.7,N
1597318975.3,286047001.0,N
1597318995.1,286047000.9,N
1597319015.9,286046998.5,N
1597319035.7,286047000.7,N
1597319055.6,286046999.7,N
1597319075.4,286047004.0,Y
1597319095.2,286047003.2,P
1597319115.1,286047004.3,N
1597319116.0,286047004.3,N
1597319135.8,286047004.1,N
1597319155.6,286047003.7,N
1597319175.5,286047003.2,N
1597319195.3,286047005.9,Y
1597319215.2,286047000.4,P
1597319235.9,286046998.1,N
1597319255.7,286046999.3,N
1597319275.6,286046998.7,N
1597319295.4,286046998.9,N
1597319315.3,286046996.5,N
1597319335.1,286046997.2,N
1597319336.0,286046997.2,N
1597319355.8,286046996.9,N
1597319375.7,286047001.1,N
1597319395.5,286046999.0,N
1597319415.3,286046999.3,N
1597319435.2,286046999.2,N
1597319455.0,286046997.6,N
1597319455.9,286046997.6,N
1597319475.8,286046997.8,N
1597319495.6,286046998.8,N
1597319515.4,286046996.9,N
1597319535.3,286047001.2,N
1597319555.1,286046998.9,N
1597319575.8,286046999.1,N
1597319595.7,286046999.6,N
1597319615.5,286046997.2,N
1597319635.4,286046995.3,Y
1597319655.2,286046995.0,P
1597319675.0,286046995.4,N
1597319675.9,286046995.4,N
1597319695.8,286046995.8,N
1597319715.6,286046996.3,N
1597319735.5,286046995.8,Y
1597319755.3,286046998.9,P
1597319775.1,286046996.9,N
1597319795.9,286046999.1,N
1597319815.7,286046996.9,N
1597319835.5,286046997.0,N
1597319855.4,286046995.4,Y
1597319875.2,286046996.6,P
1597319895.1,286046996.8,P
1597319896.0,286046996.8,P
1597319915.8,286046996.5,Y
1597319935.6,286047000.4,P
1597319955.5,286047001.2,N
1597319975.3,286047000.5,N
1597319995.2,286047000.3,N
